Flag for Cyprus Weather past 2 weeks in Larnaca, Cyprus

Now
79 °F

Sunny.


Feels Like: 82 °F
Forecast: 67 / 91 °F
Wind: 18 mph from Southwest

Location: Larnaca Airport

Current Time: Jul 3, 2015 at 8:29:51 PM

Latest Report: Jul 3, 2015 at 8:00 PM


Visibility: 10 mi

Pressure: 29.83 "Hg

Humidity: 79%

Dew point: 72 °F

Location of LarnacaLocation

Historic Weather in Larnaca — Graph

°F

Larnaca temperature yesterday

Maximum temperature yesterday: 91 °F (at 3:30 PM)
Minimum temperature yesterday: 72 °F (at 3:00 AM)
Average temperature yesterday: 81 °F

Past Weeks' High & Low Weather Summary

 TemperatureHumidityPressure
High91 °F (Jul 2, 3:30 PM)100% (Jun 25, 10:00 PM)29.98 "Hg (Jun 25, 10:00 PM)
Low66 °F (Jun 23, 5:00 AM)27% (Jul 3, 11:30 AM)29.62 "Hg (Jun 19, 4:00 AM)
Average77 °F68%29.78 "Hg
* Reported Jun 18 7:00 PM — Jul 3 7:30 PM, Larnaca, Weather by CustomWeather, © 2015

Note: Actual official high and low records may vary slightly from our data, if they occured in-between our weather recording intervals... More about our weather records

Advertising

Larnaca weather history for previous 24 hours

 ConditionsComfort  
Time TempWeatherWind HumidityBarometerVisibility
7:30 PM
Fri, Jul 3
79 °FSunny.16 mph79%29.83 "Hg10 mi
7:00 PM81 °FSunny.16 mph74%29.83 "Hg10 mi
6:30 PM82 °FPassing clouds.14 mph66%29.83 "HgN/A
6:00 PM84 °FPassing clouds.15 mph62%29.83 "HgN/A
5:30 PM84 °FPassing clouds.16 mph58%29.83 "HgN/A
5:00 PM86 °FPassing clouds.15 mph55%29.83 "HgN/A
4:30 PM86 °FPassing clouds.14 mph52%29.83 "HgN/A
4:00 PM86 °FPassing clouds.16 mph55%29.83 "HgN/A
3:30 PM88 °FPassing clouds.14 mph40%29.83 "HgN/A
3:00 PM88 °FPassing clouds.12 mph35%29.83 "HgN/A
2:30 PM88 °FPassing clouds.13 mph40%29.83 "HgN/A
2:00 PM88 °FPassing clouds.12 mph40%29.86 "HgN/A
1:30 PM86 °FPassing clouds.14 mph49%29.86 "HgN/A
1:00 PM86 °FPassing clouds.15 mph40%29.86 "HgN/A
12:30 PM86 °FPassing clouds.13 mph46%29.86 "HgN/A
12:00 PM86 °FPassing clouds.8 mph46%29.86 "HgN/A
11:30 AM88 °FPassing clouds.5 mph27%29.86 "HgN/A
11:00 AM86 °FSunny.7 mph38%29.86 "Hg10 mi
10:30 AM86 °FSunny.6 mph38%29.86 "Hg10 mi
9:00 AM82 °FPassing clouds.5 mph55%29.86 "HgN/A
8:30 AM82 °FPassing clouds.3 mph58%29.86 "HgN/A
8:00 AM81 °FSunny.2 mph66%29.86 "Hg10 mi
7:00 AM77 °FSunny.3 mph74%29.83 "Hg10 mi
6:30 AM75 °FClear.3 mph78%29.83 "Hg10 mi
6:00 AM73 °FClear.5 mph83%29.83 "Hg10 mi
5:30 AM72 °FClear.1 mph83%29.83 "Hg10 mi
5:00 AM70 °FClear.6 mph88%29.83 "Hg10 mi
4:30 AM72 °FClear.5 mph78%29.83 "Hg10 mi
4:00 AM73 °FClear.5 mph83%29.83 "Hg10 mi
3:30 AM72 °FClear.3 mph78%29.83 "Hg10 mi
3:00 AM72 °FClear.2 mph78%29.83 "Hg10 mi
2:30 AM72 °FClear.1 mph78%29.83 "Hg10 mi
2:00 AM73 °FClear.3 mph69%29.83 "Hg10 mi
1:30 AM75 °FClear.5 mph65%29.83 "Hg10 mi
1:00 AM75 °FClear.2 mph69%29.86 "Hg10 mi
12:30 AM75 °FClear.7 mph69%29.83 "Hg10 mi
12:00 AM77 °FClear.10 mph65%29.83 "Hg10 mi
11:30 PM
Thu, Jul 2
77 °FClear.13 mph65%29.86 "Hg10 mi
11:00 PM77 °FClear.13 mph65%29.83 "Hg10 mi
10:30 PM79 °FClear.13 mph58%29.83 "Hg10 mi
10:00 PM79 °FPassing clouds.14 mph54%29.83 "HgN/A
9:30 PM81 °FClear.13 mph48%29.83 "Hg10 mi
9:00 PM81 °FPassing clouds.6 mph48%29.83 "HgN/A
8:30 PM79 °FSunny.5 mph74%29.83 "Hg10 mi
8:00 PM81 °FSunny.8 mph70%29.83 "Hg10 mi
Weather by CustomWeather, © 2015

See weather overviewHow to use our weather pages